Temperature
24 21 21 22 22 22 23 23 22 23 23 22 21 20 19 19 19 18 18 18 18 18 18 18 17 17 18 17 17 17 16 16 16 15 15 15 15 15 15 15 15 15 14 14
22 22 23 24 24 24 23 22 22 22 23 22 20 20 19 19 19 18 18 18 18 18 17 17 17 17 17 17 16 16 16 16 15 15 15 15 15 15 14 14 14 14 14 14
23 24 25 25 24 24 23 22 22 22 22 22 21 19 19 19 19 18 18 18 18 17 17 17 17 16 16 16 16 16 16 15 15 15 15 15 14 14 14 14 14 14 14 14
23 25 25 25 25 24 23 23 23 23 21 19 20 18 18 18 18 18 18 17 17 17 17 17 16 16 16 16 15 15 15 15 15 14 14 14 14 14 14 14 14 14 14 14
24 25 24 24 25 25 24 23 23 22 20 19 19 18 17 17 17 17 17 17 17 17 17 16 16 16 16 15 15 15 15 15 15 14 14 14 14 14 14 13 13 13 13 13
24 25 25 25 25 25 24 22 21 19 18 18 18 18 17 16 17 17 17 17 17 17 16 16 16 16 15 15 15 15 15 14 14 14 14 14 13 13 13 13 13 13 13 13
23 24 25 25 24 23 22 19 18 18 17 17 18 17 16 17 17 17 17 17 17 16 16 16 16 15 15 15 15 15 14 14 14 14 14 13 13 13 13 13 13 13 13 13
21 22 24 24 24 23 22 19 18 18 18 17 18 17 17 17 17 17 17 17 16 16 16 16 15 15 15 15 15 14 14 14 14 14 13 13 13 13 13 13 13 13 12 12
21 21 24 24 24 23 22 19 19 17 18 17 17 17 17 17 17 17 17 16 16 16 16 15 15 15 15 15 15 14 14 14 14 13 13 13 13 13 13 13 12 12 12 12
22 21 22 24 23 22 21 20 17 17 17 17 17 17 16 16 16 16 15 16 16 16 16 15 15 15 15 15 14 14 14 14 13 13 13 13 13 13 12 12 12 12 12 12
21 20 20 21 21 21 21 20 17 16 16 16 16 16 17 16 15 15 15 16 16 16 15 15 15 15 15 15 14 14 14 14 13 13 13 13 13 12 12 12 12 12 12 12
20 17 18 20 21 22 21 19 17 17 17 16 15 15 17 16 16 16 16 16 16 16 15 15 15 15 15 14 14 14 14 14 13 13 13 13 13 13 13 12 12 12 12 12
20 17 17 18 19 20 20 20 18 16 15 15 15 16 17 16 16 16 16 16 16 15 15 15 15 15 14 14 14 14 14 13 13 13 13 13 13 13 12 12 12 12 12 12
20 17 17 18 18 19 20 20 19 17 15 16 16 16 16 15 15 15 16 16 15 15 15 15 15 14 14 14 14 14 14 14 13 13 13 13 13 12 12 12 12 12 12 12
18 18 18 19 20 20 20 20 20 18 17 16 17 16 16 15 15 16 16 16 15 15 15 14 14 14 14 14 14 14 14 13 13 13 13 13 13 12 12 12 12 12 12 12
16 18 18 18 20 20 20 20 20 19 18 17 17 16 16 16 16 16 16 15 15 15 14 14 14 14 14 14 14 14 14 13 13 13 13 13 12 12 12 12 12 12 12 12
16 17 17 17 19 19 18 19 19 18 17 17 16 16 15 15 15 15 16 15 15 15 14 14 14 14 14 14 14 14 13 13 13 13 13 13 12 12 12 12 12 12 12 12
16 16 15 16 17 17 18 19 19 18 17 16 16 15 15 16 16 16 16 16 15 15 15 14 14 14 14 14 14 13 13 13 13 13 12 12 12 12 12 12 12 12 12 12
16 16 15 15 16 17 18 19 18 17 16 16 16 16 16 16 16 15 16 16 15 15 15 15 14 14 14 14 14 13 13 13 13 13 12 12 12 12 12 12 12 12 12 12
16 15 15 15 16 16 17 19 19 17 15 16 16 15 15 15 13 13 15 15 15 15 15 14 14 14 14 14 13 13 13 13 13 13 12 12 12 12 12 12 12 12 12 12
16 16 15 15 15 16 17 19 18 16 15 17 17 16 16 15 14 16 15 15 15 15 15 14 14 14 14 13 13 13 13 13 13 13 12 12 12 12 12 12 12 12 12 12
16 15 15 14 15 15 17 18 16 15 17 17 17 17 17 16 16 16 15 15 15 15 14 14 14 14 14 13 13 13 13 13 13 12 12 12 12 12 12 12 12 12 12 12
15 15 14 14 15 16 17 18 18 18 17 17 17 17 17 16 16 15 15 15 15 14 14 14 14 14 14 13 13 13 13 13 13 13 13 13 13 12 12 12 12 12 12 12
16 16 14 14 15 16 17 18 18 18 17 17 17 17 16 16 15 15 15 15 14 14 14 14 14 14 13 13 13 13 13 13 13 13 13 13 13 13 12 12 12 12 12 12
15 15 14 14 15 16 17 17 17 17 17 17 17 16 16 16 15 15 15 14 14 14 14 14 13 13 13 13 13 13 13 13 13 13 13 13 13 13 13 12 12 12 12 12
15 15 14 14 15 15 16 17 17 17 17 16 16 16 16 16 15 15 14 14 14 14 13 13 13 13 13 13 13 13 13 13 13 13 13 13 13 13 13 12 12 12 12 12
Wind_Speed
2 2 4 8 7 7 2 1 2 3 0 3 5 5 5 5 7 7 7 5 3 3 1 2 2 3 4 4 4 2 2 1 1 1 1 1 1 1 1 1 1 1 1 1
4 4 11 7 4 2 1 0 2 3 1 2 6 5 3 5 6 7 6 5 3 2 2 3 3 3 3 3 2 2 2 1 1 1 1 1 1 1 1 1 1 1 1 1
5 8 5 1 1 2 1 2 4 3 3 3 6 4 3 3 4 5 4 4 4 3 3 3 2 2 3 2 1 1 1 1 1 1 1 1 2 2 2 2 1 1 1 2
4 5 2 2 1 2 2 4 3 2 1 2 3 2 2 1 3 3 2 1 1 1 3 3 2 2 1 1 1 1 2 2 1 1 1 1 1 1 2 2 2 2 2 1
4 2 2 2 2 1 3 2 1 1 2 2 3 4 2 2 2 1 0 0 1 2 3 2 2 1 1 1 1 1 1 2 2 1 0 1 0 1 1 1 2 2 2 2
4 2 1 0 2 2 2 6 6 6 5 3 3 3 1 1 1 0 1 2 1 2 2 2 1 1 1 1 1 1 2 2 2 2 1 1 1 1 1 2 2 3 2 2
6 5 3 2 5 6 7 7 5 7 5 1 2 3 1 2 1 3 2 1 1 1 2 1 1 1 1 1 1 2 2 3 3 2 1 1 1 2 2 2 2 2 2 2
3 5 4 3 0 1 1 7 5 2 2 2 3 1 2 0 1 2 2 2 2 2 2 1 1 1 1 0 0 1 2 2 2 2 2 1 1 1 1 2 2 2 3 3
1 4 4 3 3 3 2 1 5 6 2 1 1 0 1 1 3 3 3 4 3 2 1 1 0 1 1 1 1 1 1 2 2 2 1 1 1 1 1 2 2 2 3 3
2 2 5 4 6 7 4 4 6 4 3 0 1 2 3 2 1 2 2 2 2 2 1 1 1 1 1 1 1 1 1 1 2 1 1 1 1 1 1 2 2 3 3 3
5 2 6 5 3 1 3 4 4 4 4 4 2 4 3 5 3 1 0 0 1 1 1 1 1 1 1 1 0 1 1 1 2 1 1 1 1 2 2 2 3 3 3 2
3 4 2 4 4 1 4 3 4 3 1 3 3 4 2 4 3 3 2 0 0 1 1 1 1 2 2 2 1 1 1 1 1 1 1 1 2 2 2 2 3 2 2 2
3 5 4 7 7 7 4 3 2 4 4 3 3 3 0 2 2 2 2 1 1 2 2 2 2 2 2 2 1 1 1 1 1 1 1 1 2 2 2 2 2 2 2 2
4 4 4 4 6 4 3 4 2 4 3 2 3 3 1 1 1 1 1 2 1 1 1 2 2 2 2 2 2 1 1 1 1 1 2 1 1 1 2 2 2 2 2 2
5 2 2 3 3 1 2 3 2 1 4 5 4 4 4 3 3 3 2 2 1 1 2 2 2 2 2 2 2 2 2 1 1 1 2 1 1 2 2 1 2 2 2 1
3 2 1 3 2 4 4 3 1 1 2 4 4 2 2 2 2 3 3 3 2 0 0 1 1 2 2 1 1 2 2 2 1 1 1 1 1 2 2 2 2 2 2 2
1 3 1 2 4 4 3 2 2 3 3 4 3 3 2 1 3 4 3 3 2 1 1 1 1 1 2 1 1 1 2 1 2 1 1 1 1 1 2 2 2 2 2 2
5 3 2 1 4 1 5 1 5 6 4 4 3 2 3 3 3 3 4 3 2 2 1 1 2 2 2 2 2 2 1 1 2 2 2 1 1 1 2 2 2 2 1 1
6 5 3 2 0 3 3 3 1 4 2 1 3 3 1 2 3 2 2 2 3 3 3 3 3 2 1 2 1 2 2 2 2 1 1 1 1 1 1 2 2 2 1 1
4 5 4 2 2 3 4 4 1 6 1 2 2 3 2 3 2 4 3 1 1 2 2 2 1 0 1 2 1 1 1 1 1 1 1 1 0 0 1 2 2 1 0 1
2 2 2 2 3 4 4 3 3 3 5 4 3 4 4 3 5 5 3 2 2 2 2 2 1 1 2 2 0 0 0 1 2 1 1 1 1 1 2 1 1 1 0 1
4 3 1 2 1 5 4 2 2 5 4 3 3 3 3 2 2 2 2 2 1 1 1 2 1 2 2 1 1 1 2 3 2 1 1 2 2 2 1 1 1 1 0 1
2 5 5 5 6 5 2 3 4 4 3 2 2 2 3 2 2 2 1 1 2 2 3 2 2 2 3 2 2 3 4 3 2 1 1 2 2 2 1 1 1 1 1 0
2 1 2 0 2 2 1 1 1 2 3 3 2 3 3 2 2 2 2 2 2 2 3 2 2 2 3 3 3 4 4 2 2 1 2 2 2 2 2 1 1 1 1 1
4 0 1 1 3 1 1 1 2 1 2 1 1 2 4 3 3 3 3 3 3 2 2 2 2 3 4 4 4 4 3 2 2 2 3 3 2 2 2 2 2 2 3 4
4 4 5 5 6 4 5 3 2 3 2 1 1 1 2 3 3 3 3 3 2 2 2 2 3 4 4 4 3 3 2 1 2 2 3 3 2 2 2 2 3 4 4 5
Wind_Direction
313 66 251 245 215 198 216 286 302 278 148 81 113 123 125 122 107 113 111 106 105 103 97 89 90 92 92 88 85 70 61 13 36 35 45 6 310 316 321 250 207 196 201 191
12 277 250 240 232 193 156 316 292 303 336 102 109 97 109 122 133 132 129 125 119 73 48 58 55 62 78 78 72 43 37 26 358 274 203 230 231 256 260 278 308 257 213 212
218 251 263 256 180 117 136 200 231 253 351 71 105 46 42 77 100 112 121 143 147 141 137 103 60 42 69 73 68 35 351 345 314 332 39 17 23 12 3 332 316 299 256 222
262 267 335 11 3 92 262 252 234 222 106 264 136 146 321 90 77 89 107 129 138 148 130 114 84 58 99 125 70 39 344 328 327 356 105 101 67 301 273 269 281 296 281 254
284 288 27 10 321 97 243 269 286 199 138 70 33 112 299 44 54 22 204 180 146 168 143 132 130 141 157 112 86 21 354 328 321 335 163 130 260 256 268 294 316 310 298 281
285 293 72 293 331 49 42 25 27 44 69 47 324 124 303 310 239 297 47 62 105 134 127 123 113 104 81 84 42 8 1 328 329 335 320 188 232 257 290 306 313 309 306 301
338 341 348 23 16 3 49 62 26 11 24 311 334 86 259 274 136 138 134 82 88 110 92 88 67 43 81 81 35 359 353 329 324 330 316 253 225 216 217 252 272 286 292 285
359 315 324 355 51 200 63 118 140 184 215 258 352 96 249 242 128 102 109 113 86 83 91 139 202 203 182 192 328 335 336 319 315 318 304 288 220 201 236 249 248 261 257 259
355 285 310 345 13 113 87 79 159 138 101 75 337 57 281 12 33 60 61 67 71 86 115 146 238 233 224 252 266 263 284 310 315 312 302 308 275 247 272 284 280 271 268 264
107 299 314 332 30 29 107 122 79 91 111 140 267 233 227 250 307 9 25 54 26 34 58 35 342 293 261 256 259 280 254 276 293 305 300 336 283 274 275 295 298 292 282 274
59 72 326 1 29 8 31 48 86 100 131 145 217 268 224 195 199 198 262 79 48 35 31 39 336 323 334 334 25 358 329 324 317 316 313 322 292 285 291 293 287 286 290 290
39 96 334 299 290 133 113 115 115 121 176 144 158 263 256 172 177 158 157 62 25 21 33 33 356 4 13 5 355 314 293 304 293 313 342 320 311 332 333 316 303 300 304 305
68 85 29 347 348 5 27 38 92 121 112 127 153 253 271 126 117 138 142 118 90 51 44 27 9 3 356 351 341 308 269 276 315 352 355 353 344 345 322 304 313 332 340 334
88 92 146 202 247 277 319 331 18 93 119 172 201 211 250 144 136 121 130 147 139 102 63 35 356 338 335 334 346 345 344 350 11 24 31 15 343 332 315 319 340 335 338 342
82 107 230 251 275 315 327 323 0 107 173 170 204 191 218 216 185 162 148 139 110 52 35 21 339 330 338 347 352 359 349 344 11 42 29 342 326 348 353 350 337 340 347 352
76 121 14 343 348 12 13 355 12 80 102 133 132 168 240 213 143 135 137 130 118 81 6 345 339 358 352 349 344 354 341 327 41 76 26 338 9 34 352 336 340 353 357 355
128 125 89 288 310 8 356 304 99 101 101 128 153 217 202 166 165 168 163 140 149 171 221 283 290 290 293 307 337 334 317 344 54 56 6 14 56 38 347 344 359 350 353 22
154 133 136 266 10 327 261 308 122 115 101 94 107 135 160 192 193 182 167 157 170 183 206 224 247 279 289 303 327 339 358 45 51 35 10 20 73 38 356 353 349 338 348 8
158 144 128 116 176 270 296 338 116 131 95 64 117 121 103 82 61 344 240 172 186 202 216 221 221 234 273 299 309 8 17 42 47 19 343 348 72 51 348 330 306 295 321 335
78 103 121 129 164 239 264 301 5 102 88 284 132 138 135 87 60 270 267 230 218 236 227 215 224 229 293 292 313 52 26 33 341 290 271 276 343 104 270 261 269 270 254 279
43 44 119 164 201 249 267 288 58 105 240 246 171 164 165 180 212 236 241 249 220 226 231 199 171 204 255 269 86 56 333 265 259 255 261 306 313 267 240 248 273 285 339 12
165 150 183 141 174 254 272 80 144 214 220 183 163 166 163 189 203 207 205 218 221 250 238 206 201 251 263 253 153 209 260 258 265 274 275 289 294 285 275 264 303 317 18 46
163 180 180 184 212 237 216 173 192 163 158 177 172 175 153 146 177 203 205 213 244 239 242 230 213 248 273 248 195 217 255 255 253 291 283 279 293 298 271 237 260 298 311 181
301 86 106 303 256 238 214 147 133 160 173 181 168 163 147 158 189 212 218 233 258 259 249 244 224 242 269 264 245 235 245 234 210 243 276 277 286 305 306 284 249 229 247 236
236 359 25 264 258 307 308 217 180 118 93 85 82 135 156 160 197 211 222 237 243 260 261 233 223 234 254 260 261 261 256 219 215 243 267 275 265 271 289 292 266 243 241 221
225 190 180 222 227 198 237 232 163 121 123 142 154 153 170 169 194 208 225 229 229 252 263 260 247 245 254 256 263 270 267 222 219 252 268 268 259 260 260 269 302 300 273 271
Height
1490 1496 1500 1495 1492 1494 1495 1498 1499 1493 1487 1491 1497 1500 1500 1499 1500 1501 1503 1504 1505 1504 1505 1504 1504 1502 1501 1501 1500 1500 1499 1498 1497 1495 1494 1493 1493 1492 1492 1491 1491 1491 1490 1490
1496 1498 1487 1484 1485 1488 1491 1497 1498 1493 1487 1492 1499 1502 1501 1501 1502 1502 1503 1505 1505 1505 1504 1503 1503 1502 1501 1500 1500 1499 1498 1497 1496 1494 1493 1492 1491 1491 1490 1490 1489 1489 1488 1488
1497 1490 1481 1482 1484 1488 1491 1494 1495 1495 1491 1492 1499 1510 1506 1504 1504 1504 1505 1504 1503 1503 1503 1502 1502 1502 1501 1500 1499 1498 1497 1496 1494 1492 1491 1490 1490 1489 1488 1488 1487 1487 1486 1486
1490 1483 1481 1483 1484 1485 1494 1485 1485 1488 1499 1508 1502 1522 1513 1508 1506 1505 1505 1505 1504 1503 1502 1501 1501 1501 1500 1500 1499 1498 1496 1494 1493 1491 1489 1488 1487 1486 1486 1486 1485 1484 1484 1483
1489 1482 1482 1485 1483 1481 1484 1479 1482 1486 1496 1508 1508 1519 1519 1509 1510 1508 1506 1505 1504 1503 1501 1501 1500 1500 1500 1499 1498 1497 1495 1494 1492 1490 1488 1487 1486 1485 1485 1484 1483 1482 1482 1481
1484 1480 1480 1481 1478 1478 1479 1483 1487 1494 1504 1521 1515 1519 1523 1515 1511 1508 1506 1504 1503 1502 1501 1501 1500 1499 1499 1498 1497 1495 1494 1492 1490 1489 1487 1485 1484 1483 1483 1482 1481 1480 1479 1479
1491 1485 1481 1479 1482 1482 1484 1501 1517 1520 1528 1528 1513 1518 1521 1510 1506 1505 1504 1504 1503 1502 1501 1500 1499 1498 1497 1496 1495 1494 1492 1491 1489 1487 1486 1484 1482 1481 1480 1480 1479 1478 1477 1476
1506 1504 1486 1481 1484 1488 1489 1500 1521 1530 1533 1529 1517 1522 1517 1507 1506 1505 1503 1503 1502 1501 1500 1500 1499 1497 1496 1495 1493 1492 1491 1489 1488 1486 1484 1482 1480 1479 1478 1478 1477 1476 1475 1474
1505 1504 1485 1481 1480 1482 1491 1499 1500 1515 1520 1530 1526 1521 1514 1507 1506 1505 1503 1502 1501 1501 1500 1499 1498 1497 1495 1493 1492 1491 1490 1488 1486 1484 1482 1481 1479 1478 1477 1476 1475 1474 1473 1473
1494 1502 1491 1484 1482 1484 1487 1493 1506 1516 1527 1533 1528 1524 1522 1512 1508 1505 1504 1502 1501 1501 1500 1498 1497 1495 1494 1492 1491 1490 1488 1486 1485 1483 1481 1479 1478 1477 1476 1475 1474 1472 1472 1471
1492 1503 1500 1492 1493 1495 1493 1497 1505 1515 1519 1530 1535 1529 1508 1508 1506 1506 1504 1503 1502 1501 1499 1498 1497 1495 1493 1491 1490 1488 1486 1485 1483 1481 1480 1478 1477 1476 1474 1473 1472 1471 1470 1469
1494 1505 1510 1500 1489 1486 1490 1496 1504 1517 1521 1523 1530 1528 1503 1504 1503 1503 1504 1503 1502 1501 1499 1498 1496 1494 1492 1490 1488 1486 1485 1483 1482 1480 1479 1478 1476 1474 1473 1472 1471 1470 1469 1468
1495 1508 1520 1514 1506 1495 1494 1494 1498 1507 1517 1524 1528 1524 1504 1503 1503 1503 1503 1502 1502 1501 1499 1497 1496 1494 1491 1489 1487 1485 1483 1482 1481 1480 1478 1477 1476 1474 1473 1472 1471 1470 1469 1467
1493 1507 1517 1522 1515 1503 1501 1497 1496 1505 1519 1521 1517 1514 1507 1505 1503 1502 1502 1501 1501 1499 1498 1496 1495 1493 1491 1489 1487 1485 1483 1482 1480 1479 1477 1476 1475 1474 1473 1472 1471 1470 1468 1467
1496 1507 1505 1504 1498 1496 1497 1497 1496 1501 1505 1513 1511 1509 1506 1503 1502 1501 1501 1500 1499 1498 1497 1495 1494 1492 1490 1488 1487 1485 1483 1481 1480 1478 1477 1476 1475 1474 1473 1472 1471 1469 1468 1467
1499 1505 1505 1505 1498 1496 1498 1496 1495 1497 1499 1503 1505 1507 1502 1501 1501 1500 1500 1499 1498 1497 1496 1494 1493 1491 1490 1488 1486 1484 1483 1481 1480 1478 1477 1476 1475 1474 1473 1472 1471 1469 1468 1466
1501 1505 1511 1514 1503 1501 1508 1499 1497 1499 1499 1501 1507 1506 1501 1501 1500 1499 1499 1498 1497 1496 1495 1494 1492 1490 1489 1488 1486 1484 1483 1481 1480 1478 1477 1476 1475 1474 1473 1472 1470 1469 1468 1466
1500 1505 1513 1515 1512 1519 1509 1493 1493 1497 1500 1498 1499 1500 1499 1498 1498 1498 1498 1497 1496 1495 1494 1493 1491 1490 1488 1487 1486 1484 1483 1481 1480 1479 1477 1476 1475 1474 1473 1472 1470 1469 1468 1466
1492 1501 1511 1518 1519 1515 1503 1495 1495 1499 1503 1499 1498 1499 1498 1498 1498 1499 1498 1496 1495 1494 1493 1491 1490 1489 1488 1487 1485 1484 1483 1481 1480 1479 1477 1476 1475 1474 1473 1472 1470 1469 1468 1466
1492 1497 1508 1514 1518 1521 1507 1495 1491 1496 1505 1499 1497 1497 1498 1497 1502 1500 1496 1495 1494 1493 1491 1490 1489 1488 1487 1486 1485 1483 1482 1481 1479 1479 1477 1476 1475 1474 1473 1472 1470 1469 1467 1466
1503 1505 1510 1514 1517 1510 1498 1493 1493 1506 1507 1497 1495 1496 1496 1496 1497 1496 1494 1494 1493 1491 1490 1489 1488 1487 1486 1485 1484 1482 1481 1480 1479 1478 1477 1476 1475 1474 1473 1471 1470 1469 1467 1466
1505 1509 1511 1514 1518 1514 1494 1493 1497 1499 1494 1494 1494 1494 1494 1494 1493 1493 1492 1492 1491 1490 1489 1488 1486 1485 1485 1484 1483 1481 1480 1480 1479 1478 1477 1476 1475 1474 1473 1471 1470 1469 1467 1466
1499 1501 1503 1505 1507 1496 1493 1493 1493 1492 1493 1493 1493 1493 1493 1492 1492 1491 1491 1490 1489 1488 1487 1486 1485 1484 1483 1483 1482 1480 1479 1479 1478 1477 1476 1475 1474 1473 1472 1471 1469 1468 1467 1465
1496 1493 1497 1499 1496 1494 1493 1492 1492 1492 1492 1491 1491 1491 1491 1491 1490 1490 1489 1488 1487 1486 1485 1484 1483 1482 1481 1481 1480 1479 1478 1477 1476 1475 1474 1473 1472 1471 1471 1470 1468 1467 1465 1464
1494 1494 1497 1498 1494 1493 1492 1491 1491 1491 1491 1490 1489 1489 1489 1489 1488 1488 1487 1486 1485 1484 1483 1482 1481 1480 1480 1479 1478 1477 1476 1476 1475 1474 1472 1472 1471 1470 1469 1468 1467 1466 1465 1463
1490 1491 1495 1496 1491 1491 1490 1489 1489 1489 1489 1489 1488 1488 1487 1487 1486 1485 1485 1484 1483 1482 1481 1480 1479 1478 1477 1477 1476 1475 1474 1474 1473 1472 1471 1470 1469 1469 1468 1467 1466 1465 1464 1462